IT9DBI-3 Weather Reports


time (UTC)temp
C
wind
direction
speed
KPH
gust
KPH
rain 1hr
cm
rain 24hr
cm
rain mn
cm
humidity
%
barometer
mb
20260508005251 19 0.0 0.0 0.00 0.00 0.00 60 1007.7
20260508003250 20 0.0 0.0 0.00 0.00 0.00 57 1007.9
20260508001249 20 0.0 0.0 0.00 0.00 0.00 59 1008.4
20260507235247 19 0.0 0.0 0.00 0.00 0.00 58 1008.3
20260507233244 18 0.0 0.0 0.00 0.00 0.00 70 1008.8
20260507231242 18 0.0 0.0 0.00 0.00 0.00 73 1009.0
20260507225240 18 0.0 0.0 0.00 0.00 0.00 74 1008.7
20260507223239 18 0.0 0.0 0.00 0.00 0.00 73 1008.6
20260507221238 18 0.0 0.0 0.00 0.00 0.00 71 1008.6
20260507215232 18 0.0 0.0 0.00 0.00 0.00 66 1008.9
20260507213230 19 0.0 0.0 0.00 0.00 0.00 64 1008.7
20260507211229 19 0.0 0.0 0.00 0.00 0.00 61 1009.0
20260507205227 18 0.0 0.0 0.00 0.00 0.00 66 1009.0
20260507203225 19 0.0 0.0 0.00 0.00 0.00 60 1008.6
20260507201223 19 0.0 0.0 0.00 0.00 0.00 61 1008.7
20260507195217 19 0.0 0.0 0.00 0.00 0.00 62 1008.9
20260507193215 18 0.0 0.0 0.00 0.00 0.00 70 1008.6
20260507191214 19 0.0 0.0 0.00 0.00 0.00 65 1008.1
20260507185211 19 0.0 0.0 0.00 0.00 0.00 62 1008.3
20260507183210 18 0.0 0.0 0.00 0.00 0.00 73 1008.0
20260507181208 18 0.0 0.0 0.00 0.00 0.00 70 1007.5
20260507175201 19 0.0 0.0 0.00 0.00 0.00 65 1007.6
20260507173159 21 0.0 0.0 0.00 0.00 0.00 55 1007.8
20260507171157 20 0.0 0.0 0.00 0.00 0.00 55 1008.1
20260507165155 21 0.0 0.0 0.00 0.00 0.00 52 1007.9
20260507163154 22 0.0 0.0 0.00 0.00 0.00 50 1007.6
20260507161152 22 0.0 0.0 0.00 0.00 0.00 47 1007.4
20260507155152 22 0.0 0.0 0.00 0.00 0.00 46 1007.3
20260507153150 23 0.0 0.0 0.00 0.00 0.00 44 1007.2
20260507151149 25 0.0 0.0 0.00 0.00 0.00 40 1007.2
20260507145147 23 0.0 0.0 0.00 0.00 0.00 43 1007.1
20260507143146 24 0.0 0.0 0.00 0.00 0.00 41 1007.0
20260507141145 24 0.0 0.0 0.00 0.00 0.00 39 1007.2
20260507135143 23 0.0 0.0 0.00 0.00 0.00 41 1007.4
20260507133142 23 0.0 0.0 0.00 0.00 0.00 39 1007.4
20260507131141 23 0.0 0.0 0.00 0.00 0.00 38 1007.8
20260507125139 26 0.0 0.0 0.00 0.00 0.00 32 1007.7
20260507123138 25 0.0 0.0 0.00 0.00 0.00 34 1008.1
20260507121137 23 0.0 0.0 0.00 0.00 0.00 34 1008.5
20260507115134 24 0.0 0.0 0.00 0.00 0.00 32 1008.2
20260507113128 25 0.0 0.0 0.00 0.00 0.00 27 1008.8
20260507111126 25 0.0 0.0 0.00 0.00 0.00 24 1008.9
20260507105125 25 0.0 0.0 0.00 0.00 0.00 22 1008.8
20260507103123 25 0.0 0.0 0.00 0.00 0.00 22 1009.0
20260507101122 24 0.0 0.0 0.00 0.00 0.00 22 1009.0
20260507095121 23 0.0 0.0 0.00 0.00 0.00 23 1009.5
20260507093119 23 0.0 0.0 0.00 0.00 0.00 24 1009.7
20260507091119 23 0.0 0.0 0.00 0.00 0.00 25 1009.7
20260507085116 23 0.0 0.0 0.00 0.00 0.00 25 1009.7
20260507083115 22 0.0 0.0 0.00 0.00 0.00 28 1010.0
20260507081113 22 0.0 0.0 0.00 0.00 0.00 29 1010.0
20260507075112 22 0.0 0.0 0.00 0.00 0.00 32 1010.4
20260507073111 21 0.0 0.0 0.00 0.00 0.00 33 1010.8
20260507071109 20 0.0 0.0 0.00 0.00 0.00 35 1011.1
20260507065108 20 0.0 0.0 0.00 0.00 0.00 38 1011.1
20260507063107 19 0.0 0.0 0.00 0.00 0.00 46 1011.4
20260507061105 18 0.0 0.0 0.00 0.00 0.00 51 1011.4
20260507055059 18 0.0 0.0 0.00 0.00 0.00 53 1011.6
20260507053057 17 0.0 0.0 0.00 0.00 0.00 49 1011.5
20260507051056 16 0.0 0.0 0.00 0.00 0.00 50 1011.5
20260507045054 16 0.0 0.0 0.00 0.00 0.00 43 1011.5
20260507043053 16 0.0 0.0 0.00 0.00 0.00 48 1011.6
20260507041052 16 0.0 0.0 0.00 0.00 0.00 45 1011.6
20260507035051 16 0.0 0.0 0.00 0.00 0.00 49 1011.8
20260507033049 16 0.0 0.0 0.00 0.00 0.00 45 1011.5
20260507031048 16 0.0 0.0 0.00 0.00 0.00 47 1011.7
20260507025047 16 0.0 0.0 0.00 0.00 0.00 47 1011.6
20260507023045 17 0.0 0.0 0.00 0.00 0.00 44 1011.6
20260507021044 18 0.0 0.0 0.00 0.00 0.00 32 1011.5
20260507015043 18 0.0 0.0 0.00 0.00 0.00 41 1011.6
20260507013041 18 0.0 0.0 0.00 0.00 0.00 36 1011.2
20260507011040 17 0.0 0.0 0.00 0.00 0.00 45 1011.7